Preview of NWS' New Version of Forecast
This preview is not operational and should not be used for support decisions.

Regional Weather Roundup (RWR)

Issued by Gray - Portland, ME (GYX)

                            
000
ASUS41 KGYX 151910
RWRGYX
WEATHER ROUNDUP FOR MAINE AND NEW HAMPSHIRE
NATIONAL WEATHER SERVICE GRAY ME
300 PM EDT MON OCT 15 2018

MEZ002-005-006-010-012-015-018-020-021-024-026-027-029-152000-
MAINE
  
CITY           SKY/WX    TMP DP  RH WIND       PRES   REMARKS
PORTLAND       LGT RAIN  54  53  97 S9G17     29.95F FOG              
SANFORD        CLOUDY    53  53 100 VRB5      29.94F                  
BAR HARBOR     LGT RAIN  53  50  89 S13       30.01F                  
WISCASSET      NOT AVBL                                               
ROCKLAND       LGT RAIN  53  52  96 S9        30.00F FOG              
FRYEBURG       LGT RAIN  45  45 100 CALM      29.94F FOG              
LEWISTONAUBURN LGT RAIN  50  50 100 S5        29.94F FOG              
AUGUSTA        LGT RAIN  50  50 100 SE12      29.94F FOG              
BANGOR         LGT RAIN  52  50  93 S8        29.99F FOG              
GREENVILLE       N/A     44  44 100 VRB6      29.88F                  
MILLINOCKET    LGT RAIN  50  45  83 SE3       29.95F                  
HOULTON        NOT AVBL                                               
PRESQUE ISLE   FAIR      54  33  45 S20       29.91F                  
FRENCHVILLE    PTSUNNY   53  32  44 S15G23    29.88F                  
CARIBOU        FAIR      55  34  45 S18G25    29.90F                  
$$

NHZ002-005-008-009-011-012-014-152000-
NEW HAMPSHIRE
  
CITY           SKY/WX    TMP DP  RH WIND       PRES   REMARKS
PORTSMOUTH     CLOUDY    57  56  99 S12       29.92F                  
ROCHESTER      CLOUDY    49  49 100 CALM      29.93F FOG              
NASHUA         CLOUDY    53  53 100 CALM      29.93F                  
MANCHESTER     CLOUDY    52  50  93 CALM      29.91F FOG              
CONCORD        CLOUDY    48  48 100 S5        29.92F FOG              
LACONIA        CLOUDY    49  48  97 W5        29.92F FOG              
PLYMOUTH       DRIZZLE   42  41  98 CALM      29.94F                  
BERLIN         LGT RAIN  47  45  93 CALM      29.85F FOG              
WHITEFIELD     CLOUDY    44  43  96 CALM      29.85F                  
JAFFREY        CLOUDY    56  56 100 S13G20    29.91F FOG              
KEENE          LGT RAIN  46  46 100 CALM      29.90F FOG              
LEBANON        LGT RAIN  49  45  86 N3        29.87F FOG              
MT WASHINGTON  LGT RAIN  34  34 100 SW44G54     N/A  VSB 1/16WCI  18  
$$

VTZ005-007-008-152000-
VERMONT
  
CITY           SKY/WX    TMP DP  RH WIND       PRES   REMARKS
ST JOHNSBURY     N/A     45  45 100 MISG      29.83F                  
MONTPELIER     CLOUDY    48  47  96 S9        29.86F                  
BURLINGTON     CLOUDY    54  50  86 S18G29    29.76F                  
$$

MAZ007-012-024-CTZ003-RIZ002-NYZ038-NYZ072-152000-
SOUTHERN NEW ENGLAND AND NY
  
CITY           SKY/WX    TMP DP  RH WIND       PRES   REMARKS
BOSTON         CLOUDY    63  56  78 S18       29.95F                  
WORCESTER      CLOUDY    56  54  93 SW15G24   29.93F                  
NANTUCKET      CLOUDY    63  60  90 S13       30.03F                  
PROVIDENCE     DRIZZLE   61  60  97 S9        29.98F FOG              
HARTFORD       CLOUDY    59  58  96 S8        29.93F FOG              
ALBANY         PTSUNNY   59  54  83 S21G29    29.86F                  
NEW YORK CITY  CLOUDY    66  60  81 SW10G23   29.97F                  
$$

ANZ081-ANZ082-ANZ150-NHZ014-MEZ023>029-152000-
COASTAL MARINE OBSERVATIONS
  
STATION/POSITION TIME  TEMP    WIND        PRES    WAVE
                       AIR SEA DIR/SP/G            HT/PER
                 (UTC) (F)     (DEG/KT/KT) (MB)    (FT/S)
MOUNT DESERT ROC 1900   56     160/ 23/ 26 1016.9F
MATINICUS ROCK   1800   55     180/ 16/ 18 1016.6F
ISLE OF SHOALS   1800   58     170/ 23/ 26 1014.9F
JEFFREYS LEDGE   1806      56                N/A     2/ 3
$$

.............KEY..............
   WCI - WIND CHILL
   TC  - TEMPERATURE IN CELSIUS
   VSB - VISIBILITY IN MILES
   HX  - HEAT INDEX
   FAIR- INDICATES FEW OR NO CLOUDS BELOW 12,000 FT, WITH NO 
         SIGNIFICANT WEATHER AND/OR OBSTRUCTIONS TO VISIBILITY.